Location: Breckenridge
(39.4820°N, 106.0380°W)
Time: 06:27:48
(UTC-06:00)

ISS - Pass Details

Date: 23 March 2019
Orbit: 408 x 410 km, 51.6° (Epoch: 24 April)

Event Time Altitude Azimuth Distance (km) Brightness Sun altitude
Rises 20:59:45 0° 262° (W) 2,321 1.1 -19.8°
Reaches altitude 10° 21:02:04 10° 276° (W) 1,462 0.1 -20.3°
Maximum altitude 21:04:50 25° 334° (NNW) 876 -1.7 -20.8°
Enters shadow 21:06:20 18° 14° (NNE) 1,084 -1.6 -21.0°
